STARLINK-1055

Last updated on Thu Dec 12 2019 00:02:04 GMT+0000 (Coordinated Universal Time)

1 44760U 19074AZ 19345.58335648 -.00057898 00000-0 -15107-2 0 9991 2 44760 53.0053 23.6707 0001301 63.1458 84.1819 15.38335621 4716

Satellite not in orbit

STARLINK-1055